{"data":{"norad_id":57892,"intl_designator":"2023-146B","name":"STARLINK-30470","alt_names":[],"object_type":"PAYLOAD","status":"ACTIVE","operator":null,"country":"US","launch_date":"2023-09-20","launch_site_code":"AFETR","launch_vehicle":null,"mission":null,"orbit_class":"UNKNOWN","rcs_meters":null,"size_class":null,"mass_kg":null,"dimensions":null,"purposes":["comms"],"wikipedia_slug":null,"has_3d_model":false,"image_url":null,"decayed_at":null,"tle_current":{"epoch":"2026-09-20T08:55:34.758048Z","epoch_age_seconds":145324,"freshness":"FRESH","line1":"1 57892U 23146B   26263.37193007  .00000152  00000+0  15031-4 0  9997","line2":"2 57892  43.0029 294.4655 0001147 264.8408  95.2313 15.27575728166837","mean_motion":15.27575728,"eccentricity":0.0001147,"inclination_deg":43.0029,"raan_deg":294.4655,"arg_perigee_deg":264.8408,"mean_anomaly_deg":95.2313,"bstar":1.5031e-5,"rev_number":16683,"period_min":94.267012338913,"perigee_km":482.27490846186,"apogee_km":483.84886748676,"semimajor_km":6861.1988879743,"source":"CELESTRAK","updated_at":"2026-09-21T09:00:33.720474Z"}}}